Погода в Луховке

Россия / Республика Мордовия     54°08′51″N   45°15′08″E
темп.,
°C
ветер,
м/с
пор.,
м/с
влажн.,
%
обл.,
%
осадки,
мм/ч
давл.,
гПа
погр.,
м
13 мая, чт
чт1300:00+13вюв3108920 0.1 1022208
03:00+12вюв22920 0.1 102220
06:00+14в27884 0.0 1021193
09:00+18вюв71168100 0.3 1020701
12:00+18юв71177100 1.3 1019824
15:00+19ююв6107656 3.6 1018839
18:00+18ю598190 2.8 1017399
21:00+15ююв22890 2.8 101812
14 мая, пт
пт1400:00+14ю22917 0.0 101912
03:00+13ююв2293100 0.0 102011
06:00+15ююв1290100 0.0 102053
09:00+19юв2378100 0.0 1020357
12:00+23юв45625 0.0 10191027
15:00+25ююв465568 0.1 10181710
18:00+22ююв3771100 0.0 1017199
21:00+18ююв338098 0.0 101825
15 мая, сб
сб1500:00+17юв2282100 0.0 101718
03:00+15юв347760 0.0 101761
06:00+17ююв5146584 0.0 1017307
09:00+22ю71553100 0.0 1017642
12:00+24ю71448100 0.0 10171076
15:00+25ю7134938 0.0 10161153
18:00+22ю612605 0.0 1016437
21:00+17ююв337251 0.0 101636
16 мая, вс
вс1600:00+16ююв337278 0.0 101635
03:00+15ююв3971100 0.0 1016151
06:00+16ююв3107469 0.0 1016260
09:00+21ю5859100 0.0 1016450
12:00+24ю6850100 0.0 1016753
15:00+25ююз5849100 0.0 10161411
18:00+22ююз38645 0.0 1016235
21:00+18ю22755 0.0 101611
17 мая, пн
пн1700:00+16ююв227981 0.0 101711
03:00+16вюв117811 0.0 101711
06:00+18вюв127033 0.0 101770
09:00+23ююв345410 0.0 1017375
12:00+26ю23458 0.0 1017628
15:00+29юв243565 0.0 10162672
18:00+22ссв366534 0.6 1017116
21:00+18в33628 0.6 101728